DW1274 Weather Reports


Display with metric or nautical units.
time (UTC)temp
F
wind
direction
speed
MPH
gust
MPH
rain 1hr
in
rain 24hr
in
rain mn
in
humidity
%
barometer
mb
20260831214219 86 16 3.0 9.0 0.00 0.00 0.00 69 1015.1
20260831213719 86 77 4.0 8.0 0.00 0.00 0.00 68 1015.1
20260831213220 86 110 4.0 9.0 0.00 0.00 0.00 68 1015.0
20260831212720 86 69 4.0 10.0 0.00 0.00 0.00 69 1015.1
20260831212223 86 114 4.0 10.0 0.00 0.00 0.00 70 1015.1
20260831211219 86 33 5.0 10.0 0.00 0.00 0.00 70 1015.1
20260831210219 86 87 5.0 9.0 0.00 0.00 0.00 70 1015.0
20260831205719 86 74 5.0 9.0 0.00 0.00 0.00 70 1015.0
20260831205218 86 52 5.0 10.0 0.00 0.00 0.00 71 1015.1
20260831204714 86 71 4.0 10.0 0.00 0.00 0.00 71 1015.1
20260831204214 87 107 4.0 10.0 0.00 0.00 0.00 70 1015.0
20260831203715 87 19 5.0 10.0 0.00 0.00 0.00 70 1015.0
20260831203215 87 141 4.0 10.0 0.00 0.00 0.00 69 1014.9
20260831202715 87 45 4.0 10.0 0.00 0.00 0.00 69 1014.9
20260831202215 87 151 4.0 9.0 0.00 0.00 0.00 69 1014.8
20260831201715 87 134 4.0 11.0 0.00 0.00 0.00 69 1014.9
20260831201214 88 55 5.0 11.0 0.00 0.00 0.00 69 1014.9
20260831200714 88 27 4.0 10.0 0.00 0.00 0.00 66 1014.9
20260831200214 88 9 3.0 9.0 0.00 0.00 0.00 66 1014.9
20260831195712 87 44 4.0 10.0 0.00 0.00 0.00 68 1014.9
20260831195212 87 39 5.0 11.0 0.00 0.00 0.00 69 1014.9
20260831194708 88 1 4.0 11.0 0.00 0.00 0.00 68 1015.0
20260831194209 87 59 4.0 11.0 0.00 0.00 0.00 69 1015.1
20260831193709 87 346 5.0 11.0 0.00 0.00 0.00 69 1015.2
20260831193209 87 9 5.0 10.0 0.00 0.00 0.00 69 1015.1
20260831192709 87 31 5.0 12.0 0.00 0.00 0.00 70 1015.2
20260831192209 87 49 5.0 12.0 0.00 0.00 0.00 69 1015.2
20260831191709 86 359 3.0 8.0 0.00 0.00 0.00 72 1015.3
20260831191209 87 133 4.0 11.0 0.00 0.00 0.00 72 1015.3
20260831190209 88 24 5.0 12.0 0.00 0.00 0.00 68 1015.4
20260831185709 88 23 5.0 12.0 0.00 0.01 0.00 69 1015.4
20260831185209 87 1 4.0 10.0 0.00 0.01 0.00 70 1015.5
20260831184706 87 111 5.0 11.0 0.00 0.01 0.00 71 1015.6
20260831184207 86 62 6.0 11.0 0.00 0.01 0.00 72 1015.7
20260831183706 87 49 6.0 13.0 0.00 0.01 0.00 72 1015.8
20260831183206 87 2 6.0 13.0 0.00 0.01 0.00 70 1015.8
20260831182707 87 348 5.0 13.0 0.00 0.01 0.00 71 1015.9
20260831181707 87 29 4.0 10.0 0.00 0.01 0.00 72 1015.8
20260831181207 87 46 4.0 10.0 0.00 0.01 0.00 72 1015.8
20260831180707 87 328 6.0 9.0 0.00 0.01 0.00 70 1016.0
20260831175705 87 138 4.0 9.0 0.00 0.01 0.00 71 1016.1
20260831175206 86 99 4.0 9.0 0.00 0.01 0.00 73 1016.2
20260831174701 86 25 4.0 10.0 0.00 0.01 0.00 74 1016.3
20260831174201 86 32 3.0 10.0 0.00 0.01 0.00 75 1016.4
20260831173701 87 24 4.0 10.0 0.00 0.01 0.00 73 1016.5
20260831173201 87 69 4.0 10.0 0.00 0.01 0.00 73 1016.5
20260831172701 87 13 4.0 12.0 0.00 0.01 0.00 71 1016.5
20260831171701 87 72 4.0 9.0 0.00 0.01 0.00 72 1016.5
20260831170701 86 28 5.0 11.0 0.00 0.01 0.00 74 1016.6
20260831170201 88 118 4.0 11.0 0.00 0.01 0.00 74 1016.6
20260831165700 89 71 3.0 11.0 0.00 0.01 0.00 65 1016.7
20260831165200 88 16 3.0 11.0 0.00 0.01 0.00 64 1016.7
20260831164701 87 23 3.0 8.0 0.00 0.01 0.00 67 1016.8
20260831164201 87 127 3.0 7.0 0.00 0.01 0.00 67 1016.8
20260831163703 88 148 4.0 7.0 0.00 0.01 0.00 67 1016.8
20260831163201 88 85 3.0 7.0 0.00 0.01 0.00 66 1016.9
20260831162701 87 74 3.0 8.0 0.00 0.01 0.00 70 1017.0
20260831162201 88 85 4.0 9.0 0.00 0.01 0.00 67 1017.1
20260831161701 87 359 4.0 9.0 0.00 0.01 0.00 67 1017.1
20260831161201 87 3 4.0 8.0 0.00 0.01 0.00 69 1017.2
20260831160701 87 4 3.0 8.0 0.00 0.01 0.00 70 1017.2
20260831160201 87 126 3.0 9.0 0.00 0.01 0.00 69 1017.2
20260831155701 87 52 3.0 9.0 0.00 0.01 0.00 71 1017.3
20260831155202 86 25 4.0 9.0 0.00 0.01 0.00 72 1017.4
20260831153200 85 359 5.0 12.0 0.00 0.01 0.00 75 1017.5
20260831152700 85 342 5.0 12.0 0.00 0.01 0.00 78 1017.7
20260831152200 85 27 6.0 11.0 0.00 0.01 0.00 77 1017.6
20260831151700 85 342 6.0 11.0 0.00 0.01 0.00 76 1017.6
20260831151200 84 20 6.0 10.0 0.00 0.01 0.00 79 1017.5
20260831150701 84 17 5.0 9.0 0.00 0.01 0.00 78 1017.4
20260831145201 83 16 4.0 8.0 0.00 0.01 0.00 81 1017.4
20260831144702 83 339 4.0 8.0 0.00 0.01 0.00 81 1017.4
20260831144203 83 9 3.0 8.0 0.00 0.01 0.00 82 1017.3
20260831143702 83 47 3.0 8.0 0.00 0.01 0.00 81 1017.2
20260831143200 83 326 3.0 9.0 0.00 0.01 0.00 82 1017.2
20260831142701 82 5 4.0 9.0 0.00 0.01 0.00 83 1017.1
20260831142201 82 21 3.0 7.0 0.00 0.01 0.00 85 1017.1
20260831141202 82 17 4.0 8.0 0.00 0.01 0.00 85 1017.0
20260831140703 82 358 3.0 6.0 0.00 0.01 0.00 85 1016.9
20260831140202 82 27 3.0 6.0 0.00 0.01 0.00 85 1016.9
20260831135201 83 0 2.0 6.0 0.00 0.01 0.00 84 1016.8
20260831134702 83 10 2.0 6.0 0.00 0.01 0.00 83 1016.8
20260831134201 83 343 2.0 6.0 0.00 0.01 0.00 83 1016.7
20260831133701 83 351 2.0 6.0 0.00 0.01 0.00 85 1016.6
20260831133201 83 333 2.0 6.0 0.00 0.01 0.00 84 1016.6
20260831132201 83 332 2.0 5.0 0.00 0.01 0.00 84 1016.7
20260831131201 82 345 3.0 6.0 0.00 0.01 0.00 87 1016.7
20260831130701 82 19 2.0 6.0 0.00 0.01 0.00 86 1016.7
20260831130201 81 0 2.0 5.0 0.00 0.01 0.00 86 1016.6
20260831125701 82 34 3.0 7.0 0.00 0.01 0.00 86 1016.6
20260831124700 81 356 2.0 6.0 0.00 0.01 0.00 86 1016.7
20260831124200 80 47 2.0 6.0 0.00 0.01 0.00 87 1016.7
20260831123701 80 212 2.0 6.0 0.00 0.01 0.00 88 1016.7
20260831123200 79 0 2.0 6.0 0.00 0.01 0.00 90 1016.6
20260831122700 78 292 4.0 7.0 0.00 0.01 0.00 91 1016.5
20260831122203 78 26 2.0 7.0 0.00 0.01 0.00 92 1016.4
20260831121700 78 29 2.0 6.0 0.00 0.01 0.00 93 1016.4
20260831121201 77 28 3.0 6.0 0.00 0.01 0.00 93 1016.3
20260831120702 76 40 3.0 5.0 0.00 0.01 0.00 94 1016.2
20260831120202 76 14 3.0 5.0 0.00 0.01 0.00 94 1016.2
20260831115705 76 19 3.0 4.0 0.00 0.01 0.00 94 1016.3
20260831114648 76 22 2.0 3.0 0.00 0.01 0.00 94 1016.2
20260831113648 75 9 0.0 3.0 0.00 0.01 0.00 94 1016.1
20260831113148 75 0 1.0 2.0 0.00 0.01 0.00 94 1016.0
20260831112632 75 32 2.0 3.0 0.00 0.01 0.00 94 1016.0
20260831112132 75 349 2.0 3.0 0.00 0.01 0.00 94 1015.9
20260831111632 75 319 0.0 2.0 0.00 0.01 0.00 94 1015.9
20260831110634 75 0 0.0 2.0 0.00 0.01 0.00 94 1015.7
20260831105630 75 6 2.0 4.0 0.00 0.01 0.00 93 1015.7
20260831105131 75 7 2.0 4.0 0.00 0.01 0.00 93 1015.7
20260831104130 75 13 3.0 5.0 0.00 0.01 0.00 93 1015.6
20260831103631 75 6 3.0 5.0 0.00 0.01 0.00 93 1015.6
20260831103131 75 12 3.0 4.0 0.00 0.01 0.00 93 1015.6
20260831102633 75 9 2.0 3.0 0.00 0.01 0.00 93 1015.5
20260831102131 75 354 1.0 3.0 0.00 0.01 0.00 93 1015.5
20260831101630 75 317 0.0 2.0 0.00 0.01 0.00 93 1015.4
20260831101130 75 0 0.0 0.0 0.00 0.01 0.00 93 1015.3
20260831100630 75 0 0.0 2.0 0.00 0.01 0.00 93 1015.3
20260831100130 75 0 1.0 2.0 0.00 0.01 0.00 93 1015.4
20260831095629 75 0 1.0 2.0 0.00 0.01 0.00 93 1015.4
20260831095130 75 349 1.0 3.0 0.00 0.01 0.00 93 1015.3
20260831094630 75 357 2.0 4.0 0.00 0.01 0.00 93 1015.3
20260831094130 75 30 2.0 4.0 0.00 0.01 0.00 93 1015.4
20260831093620 75 10 2.0 4.0 0.00 0.01 0.00 93 1015.3
20260831092603 75 0 1.0 3.0 0.00 0.01 0.00 93 1015.4
20260831092103 75 11 1.0 3.0 0.00 0.01 0.00 93 1015.4
20260831091602 75 51 2.0 4.0 0.00 0.01 0.00 93 1015.3
20260831091102 75 13 2.0 4.0 0.00 0.01 0.00 93 1015.3
20260831090602 75 11 2.0 4.0 0.00 0.01 0.00 93 1015.3
20260831085606 75 355 2.0 4.0 0.00 0.01 0.00 93 1015.3
20260831085051 75 1 2.0 4.0 0.00 0.01 0.00 93 1015.2
20260831084550 75 13 2.0 4.0 0.00 0.02 0.00 93 1015.2
20260831084050 75 353 2.0 4.0 0.00 0.02 0.00 93 1015.2
20260831083551 75 13 2.0 4.0 0.00 0.09 0.00 93 1015.2
20260831083036 75 18 2.0 4.0 0.00 0.14 0.00 93 1015.3
20260831082536 75 352 1.0 2.0 0.00 0.14 0.00 93 1015.2
20260831082036 75 343 1.0 2.0 0.00 0.14 0.00 93 1015.2
20260831081535 75 16 1.0 2.0 0.00 0.14 0.00 93 1015.2
20260831081036 75 359 1.0 2.0 0.00 0.14 0.00 93 1015.1
20260831080538 75 16 1.0 2.0 0.00 0.14 0.00 93 1015.1
20260831075534 75 335 0.0 2.0 0.00 0.14 0.00 93 1015.2
20260831075034 75 357 0.0 2.0 0.00 0.14 0.00 93 1015.2
20260831074533 75 0 0.0 1.0 0.00 0.14 0.00 93 1015.3
20260831073535 75 2 0.0 1.0 0.00 0.14 0.00 93 1015.3
20260831073035 75 0 0.0 1.0 0.00 0.14 0.00 93 1015.4
20260831072535 75 96 0.0 1.0 0.00 0.14 0.00 93 1015.4
20260831072036 75 0 0.0 0.0 0.00 0.14 0.00 93 1015.4
20260831071530 75 0 0.0 0.0 0.00 0.14 0.00 92 1015.5
20260831071030 75 0 0.0 2.0 0.00 0.14 0.00 92 1015.5
20260831070530 75 0 0.0 2.0 0.00 0.14 0.00 92 1015.6
20260831065523 75 343 0.0 2.0 0.00 0.14 0.00 92 1015.7
20260831065022 75 321 0.0 1.0 0.00 0.14 0.00 92 1015.7
20260831064522 75 0 0.0 1.0 0.00 0.14 0.00 92 1015.7
20260831064022 75 0 0.0 2.0 0.00 0.14 0.00 92 1015.7
20260831063523 76 0 1.0 2.0 0.00 0.14 0.00 92 1015.6
20260831063008 76 230 1.0 2.0 0.00 0.14 0.00 92 1015.7
20260831062508 76 345 1.0 2.0 0.00 0.14 0.00 92 1015.8
20260831062007 76 0 2.0 4.0 0.00 0.14 0.00 92 1015.8
20260831060002 76 17 2.0 5.0 0.00 0.14 0.00 91 1016.0
20260831055456 76 345 3.0 5.0 0.00 0.14 0.00 91 1015.9
20260831054954 76 11 3.0 4.0 0.00 0.14 0.00 91 1016.0
20260831054453 76 356 2.0 4.0 0.00 0.14 0.00 91 1016.0
20260831053954 76 351 1.0 3.0 0.00 0.14 0.00 91 1016.1
20260831053453 76 358 0.0 3.0 0.00 0.14 0.00 91 1016.1
20260831052953 76 0 1.0 3.0 0.00 0.14 0.00 91 1016.1
20260831052458 76 20 2.0 4.0 0.00 0.14 0.00 91 1016.1
20260831051954 76 13 2.0 4.0 0.00 0.14 0.00 91 1016.2
20260831051453 76 354 2.0 3.0 0.00 0.14 0.00 91 1016.2
20260831050453 76 16 3.0 5.0 0.00 0.14 0.00 91 1016.1
20260831045954 77 358 3.0 5.0 0.00 0.14 0.00 91 1016.1
20260831045453 77 339 3.0 4.0 0.00 0.14 0.00 91 1016.1
20260831044953 77 358 2.0 3.0 0.00 0.14 0.00 91 1016.1
20260831044452 77 21 2.0 3.0 0.00 0.14 0.00 91 1016.1
20260831043950 77 12 2.0 3.0 0.00 0.14 0.00 91 1016.1
20260831042939 77 345 1.0 3.0 0.00 0.14 0.00 91 1016.0
20260831042439 77 352 0.0 2.0 0.00 0.14 0.00 90 1016.0
20260831041939 77 0 0.0 1.0 0.00 0.14 0.00 90 1016.2
20260831041439 77 0 0.0 0.0 0.00 0.14 0.00 90 1016.2
20260831040938 77 0 0.0 0.0 0.00 0.14 0.00 90 1016.1
20260831040439 77 0 1.0 3.0 0.00 0.14 0.00 90 1016.2
20260831035939 77 0 1.0 3.0 0.00 0.14 0.14 90 1016.2
20260831035438 77 0 0.0 2.0 0.00 0.14 0.14 89 1016.3
20260831034939 77 0 0.0 3.0 0.00 0.14 0.14 89 1016.3
20260831034430 78 0 2.0 3.0 0.00 0.14 0.14 89 1016.3
20260831033426 78 30 2.0 4.0 0.00 0.14 0.14 89 1016.3
20260831032926 77 243 2.0 4.0 0.00 0.14 0.14 89 1016.3
20260831032425 77 356 3.0 4.0 0.00 0.14 0.14 88 1016.4
20260831031426 77 17 2.0 3.0 0.00 0.14 0.14 88 1016.5
20260831030927 78 354 1.0 2.0 0.00 0.14 0.14 88 1016.6
20260831025927 78 5 1.0 3.0 0.00 0.14 0.14 87 1016.7
20260831025411 78 347 1.0 2.0 0.00 0.14 0.14 87 1016.7
20260831023902 79 0 0.0 2.0 0.00 0.14 0.14 86 1016.6
20260831023402 79 0 0.0 4.0 0.00 0.14 0.14 86 1016.6
20260831022902 79 0 0.0 4.0 0.00 0.14 0.14 86 1016.6
20260831022401 79 0 1.0 3.0 0.00 0.14 0.14 85 1016.6
20260831021902 79 40 2.0 3.0 0.00 0.14 0.14 85 1016.6
20260831021357 79 29 2.0 4.0 0.00 0.14 0.14 85 1016.6
20260831020857 79 15 2.0 4.0 0.00 0.14 0.14 85 1016.6
20260831020353 79 244 1.0 7.0 0.00 0.14 0.14 85 1016.6
20260831015351 80 0 2.0 4.0 0.00 0.14 0.14 85 1016.4
20260831014851 0 0.0 0.0 0.00 0.14 0.14
20260831014331 0 0.0 0.0 0.00 0.14 0.14
20260831013831 0 0.0 0.0 0.00 0.14 0.14
20260831013330 80 0 2.0 0.0 0.00 0.14 0.14 85 1016.4
20260831012830 80 0 2.0 4.0 0.00 0.14 0.14 85 1016.4
20260831012333 80 0 2.0 4.0 0.00 0.15 0.14 85 1016.4
20260831011830 80 28 2.0 4.0 0.00 0.15 0.14 85 1016.4
20260831011302 81 37 2.0 4.0 0.00 0.15 0.14 84 1016.3
20260831010803 0 0 0.0 0.0 0.00 0.16 0.14
20260831005802 0 0.0 0.0 0.00 0.16 0.14
20260831005302 0 0.0 0.0 0.00 0.16 0.14
20260831004756 0 0.0 0.0 0.00 0.17 0.14
20260831004231 81 5 1.0 0.0 0.00 0.17 0.14 84 1016.1
20260831003730 81 5 1.0 3.0 0.00 0.17 0.14 84 1016.1
20260831003233 81 5 1.0 3.0 0.00 0.17 0.14 84 1016.1
20260831002729 81 61 1.0 3.0 0.00 0.17 0.14 84 1016.0
20260831002229 81 0 1.0 3.0 0.00 0.17 0.14 83 1016.1
20260831001729 81 39 1.0 3.0 0.00 0.17 0.14 83 1016.0
20260831001229 81 0 1.0 4.0 0.00 0.17 0.14 83 1016.0
20260831000229 82 35 1.0 3.0 0.00 0.17 0.14 81 1015.9
20260830235730 82 19 2.0 3.0 0.00 0.17 0.14 81 1016.0
20260830235230 82 15 2.0 5.0 0.00 0.17 0.14 80 1016.0
20260830234721 83 84 1.0 5.0 0.00 0.17 0.14 79 1015.9
20260830234217 83 0 1.0 4.0 0.00 0.17 0.14 78 1015.9
20260830233217 83 0 2.0 5.0 0.00 0.17 0.14 77 1015.9
20260830232717 83 0 2.0 6.0 0.00 0.17 0.14 77 1015.8
20260830232217 83 0 2.0 6.0 0.00 0.17 0.14 77 1015.9
20260830230715 84 53 3.0 8.0 0.00 0.17 0.14 76 1015.7
20260830225715 84 114 2.0 7.0 0.00 0.17 0.14 76 1015.7
20260830224715 84 46 2.0 7.0 0.00 0.17 0.14 77 1015.6
20260830223715 84 38 3.0 8.0 0.00 0.17 0.14 78 1015.6
20260830223214 84 0 4.0 8.0 0.00 0.17 0.14 77 1015.6
20260830222216 84 48 6.0 13.0 0.00 0.17 0.14 75 1015.5
20260830221712 85 34 4.0 9.0 0.00 0.17 0.14 74 1015.4
20260830221214 85 42 4.0 12.0 0.00 0.17 0.14 74 1015.4
20260830220713 85 69 5.0 12.0 0.00 0.17 0.14 74 1015.3
20260830220213 85 29 5.0 11.0 0.00 0.17 0.14 74 1015.2
20260830215712 85 81 6.0 11.0 0.00 0.17 0.14 73 1015.2
20260830215213 86 59 5.0 10.0 0.00 0.17 0.14 72 1015.1
20260830214713 86 95 4.0 9.0 0.00 0.17 0.14 73 1015.2